Location: ?ejeti?ky
(50.4060°N, 14.9016°E)
Time: 22:01:39
(UTC+00:00)

STARLINK-1364 - Pass Details

Date: 02 October 2020
Orbit: 548 x 551 km, 53.0° (Epoch: 23 October)

Event Time Altitude Azimuth Distance (km) Brightness Sun altitude
Exits shadow 01:43:27 26° 70° (ENE) 1,115 5.7 -30.8°
Drops below altitude 10° 01:45:19 10° 70° (ENE) 1,830 7.1 -30.5°
Sets 01:47:33 0° 71° (ENE) 2,726 8.2 -30.2°
